Regional Weather Roundup
Issued by NWS

Home | Current Version | Previous Version | Graphics & Text | Print | Product List | Glossary Off
Versions: 1 2 3 4 5 6 7 8 9 10 11 12 13 14 15 16 17 18 19 20 21 22 23 24 25 26 27 28 29 30 31 32 33 34 35 36 37 38 39 40 41 42 43 44 45 46 47 48 49 50

000
ASUS43 KMKX 062210
RWRWI

WISCONSIN REGIONAL WEATHER ROUNDUP
NATIONAL WEATHER SERVICE MILWAUKEE/SULLIVAN WI
400 PM CST FRI MAR 06 2015

NOTE: "FAIR" INDICATES FEW OR NO CLOUDS BELOW 12,000 FEET WITH NO
SIGNIFICANT WEATHER AND/OR OBSTRUCTIONS TO VISIBILITY.

WIZ001-002-006>008-014>016-023>028-062300-
NORTHWEST WISCONSIN

CITY           SKY/WX    TMP DP  RH WIND       PRES   REMARKS
SUPERIOR ARPT  SUNNY     34  13  42 W12       29.98R WCI  26
ASHLAND        SUNNY     33  12  41 W12       29.96S WCI  24
HAYWARD        SUNNY     32  11  41 SW8       29.97R WCI  25
SIREN          SUNNY     33  13  44 W10       30.01R WCI  25
CUMBERLAND     SUNNY     30  14  51 W8        30.00R WCI  23
RICE LAKE      SUNNY     32  14  48 W8        30.02S WCI  24
CHETEK         SUNNY     32  14  48 W5        30.01S WCI  27
LADYSMITH      SUNNY     31  13  47 W9        30.00S WCI  23
EAU CLAIRE     SUNNY     32  16  51 SW12      30.02S WCI  23
MENOMONIE      SUNNY     36  17  46 W8        30.03S WCI  29
NEW RICHMOND   SUNNY     34  16  47 W8        30.02S WCI  27
OSCEOLA        SUNNY     33  16  48 W10       30.06R WCI  25
$$

WIZ003>005-009-010-017-018-062300-
NORTH CENTRAL WISCONSIN

CITY           SKY/WX    TMP DP  RH WIND       PRES   REMARKS
MANITOWISH WTR SUNNY     28   9  44 SW9       29.91R WCI  20
ARBOR VITAE    SUNNY     30  11  44 W10G18    29.91S WCI  21
WOODRUFF       SUNNY     30  11  44 W10G18    29.91S WCI  21
RHINELANDER    SUNNY     28  12  51 W17       29.92S WCI  16
EAGLE RIVER    SUNNY     28   7  40 W10       29.90R WCI  19
LAND O LAKES   SUNNY     30   8  38 W10G17    29.90R WCI  21
PHILLIPS       SUNNY     29  10  45 W6        29.94S WCI  23
TOMAHAWK       SUNNY     29  11  45 W12G17    29.95R WCI  20
MEDFORD        SUNNY     28  13  53 W10       29.97S WCI  18
MERRILL        SUNNY     28  13  52 SW10      29.97R WCI  19
$$

WIZ029-030-035-036-043>047-062300-
CENTRAL WISCONSIN

CITY           SKY/WX    TMP DP  RH WIND       PRES   REMARKS
WAUSAU         SUNNY     29  13  51 W16G22    29.97R WCI  17
MOSINEE        SUNNY     28  14  54 SW14      29.99R WCI  17
MARSHFIELD     SUNNY     31  13  47 W13       29.99R WCI  21
STEVENS POINT  SUNNY     31  13  46 SW10      29.99S WCI  22
WAUPACA        SUNNY     35  13  40 S12       30.01S WCI  27
WAUTOMA        SUNNY     31  14  49 SW10      30.03F WCI  22
WISC RAPIDS    SUNNY     32  13  45 SW10      30.02R WCI  24
CAMP DOUGLAS   SUNNY     34  18  51 W12       30.03R WCI  25
$$

WIZ011>013-019>022-031-037>040-048>050-062300-
NORTHEAST WISCONSIN

CITY           SKY/WX    TMP DP  RH WIND       PRES   REMARKS
ANTIGO         SUNNY     26  13  57 W12       29.95R WCI  16
SHAWANO        SUNNY     33  13  43 SW14G21   29.99S WCI  23
OCONTO         SUNNY     30  13  49 SW9G22    29.99F WCI  22
STURGEON BAY   FAIR      27  12  54 SW17G24   30.01F WCI  14
GREEN BAY      MOSUNNY   28  16  60 S13       30.01F WCI  17
MANITOWOC      CLOUDY    29  15  56 SW16G22   30.04F WCI  17
APPLETON       MOSUNNY   30  12  47 SW18      30.02F WCI  18
CLINTONVILLE   SUNNY     32  14  47 SW12G18   29.99F WCI  23
OSHKOSH        CLOUDY    28  14  55 SW17G26   30.03F WCI  16
$$

WIZ032>034-041-042-053>061-062300-
SOUTHWEST WISCONSIN

CITY           SKY/WX    TMP DP  RH WIND       PRES   REMARKS
LA CROSSE      SUNNY     35  20  54 SW10      30.07R WCI  27
SPARTA         SUNNY     34  17  48 W15       30.06R WCI  24
VIROQUA        SUNNY     31  19  60 SW16      30.04S WCI  20
BOSCOBEL       LGT RAIN  34  18  52 SW14G22   30.10F WCI  25
PRAIRIE DU CHI SUNNY     34  19  55 SW10      30.10F WCI  26
PLATTEVILLE    SUNNY     30  20  65 S15       30.11F WCI  19
$$

WIZ056-057-062-063-064-067-068-062300-
SOUTH CENTRAL WISCONSIN

CITY           SKY/WX    TMP DP  RH WIND       PRES   REMARKS
REEDSBURG      SUNNY     31  17  57 SW14      30.05F WCI  20
BARABOO/DELLS  SUNNY     30  15  53 SW15      30.04F WCI  19
LONE ROCK      SUNNY     30  16  56 SW12      30.10F WCI  20
MINERAL POINT  SUNNY     32  19  59 SW15      30.09S WCI  22
MADISON        MOSUNNY   29  14  53 S10G16    30.09F WCI  20
MIDDLETON      SUNNY     31  14  48 SW16      30.08F WCI  20
WATERTOWN      PTSUNNY   27  16  62 SW17      30.09F WCI  14
MONROE         SUNNY     30  19  64 SW15G23   30.10F WCI  19
JANESVILLE     SUNNY     28  16  59 SW18G24   30.13F WCI  16
$$

WIZ051-052-058>065-066-070>072-062300-
SOUTHEAST WISCONSIN

CITY           SKY/WX    TMP DP  RH WIND       PRES   REMARKS
MILWAUKEE      PTSUNNY   27  14  58 SW17G29   30.12F WCI  14
WAUKESHA       MOSUNNY   25  12  58 SW15G23   30.11F WCI  12
MILWAUKEE/TIMM PTSUNNY   27  12  54 SW20G28   30.11F WCI  13
RACINE         PTSUNNY   27  13  55 SW17G31   30.15F WCI  14
BURLINGTON     MOSUNNY   25  15  65 SW20G28   30.14F WCI  11
KENOSHA        SUNNY     26  15  63 SW22G28   30.15F WCI  12
FOND DU LAC    CLOUDY    28  13  53 SW18G24   30.05F WCI  15
SHEBOYGAN      CLOUDY    26  14  60 S21       30.05F WCI  12
WEST BEND      MOSUNNY   28  12  50 S17       30.07F WCI  16
JUNEAU         CLOUDY    26  14  61 SW21      30.09F WCI  11
$$

LSZ147-162-062300-
LAKE SUPERIOR

STATION/POSITION TIME  TEMP    WIND        PRES    WAVE
                       AIR SEA DIR/SP/G            HT/PER
                 (UTC) (F)     (DEG/KT/KT) (MB)    (FT/S)
DEVILS ISLAND    2200   30     250/ 14/ 16 1014.7R
PORT WING        2100   32     240/ 13/ 18 1014.9
SAXON HARBOR     2100   34     270/  6/ 12 1014.2S
$$

LMZ867-665-643>646-062300-
LAKE MICHIGAN

STATION/POSITION TIME  TEMP    WIND        PRES    WAVE
                       AIR SEA DIR/SP/G            HT/PER
                 (UTC) (F)     (DEG/KT/KT) (MB)    (FT/S)
NORTHPORT PIER   2120   28     190/  6/ 17 1015.6F
SISTER BAY       1943   26     220/ 19/ 24   N/A
KEWAUNEE LAKESHO 2100   28     230/ 13/ 19 1016.3F
SHEBOYGAN LAKESH 2200   27     220/ 19/ 23 1019.2F
PORT WASHINGTON  2140   30     240/  9/ 18 1019.6F
MILWAUKEE LAKESH 2100   26     220/ 20/ 28   N/A
KENOSHA   LAKESH 2200   28     230/ 16/ 25 1021.3S
$$

TC  - TEMPERATURE IN CELSIUS
VSB - VISIBILITY IN STATUTE MILES
WCI - WIND CHILL INDEX
HX  - HEAT INDEX



USA.gov is the U.S. government's official web portal to all federal, state and local government web resources and services.